DW4563 Weather Reports


time (UTC)temp
C
wind
direction
speed
KPH
gust
KPH
rain 1hr
cm
rain 24hr
cm
rain mn
cm
humidity
%
barometer
mb
20260502213803 13 12 1.6 3.2 0.00 0.00 0.00 76 1014.1
20260502213304 13 284 1.6 3.2 0.00 0.00 0.00 77 1014.1
20260502211803 14 283 1.6 3.2 0.00 0.00 0.00 76 1014.1
20260502211303 14 282 0.0 3.2 0.00 0.00 0.00 77 1014.1
20260502210303 14 282 0.0 4.8 0.00 0.00 0.00 75 1014.1
20260502204303 15 71 1.6 3.2 0.00 0.00 0.00 73 1014.0
20260502201304 16 317 0.0 1.6 0.00 0.00 0.00 68 1014.4
20260502200803 16 316 0.0 3.2 0.00 0.00 0.00 67 1014.4
20260502194304 16 31 1.6 4.8 0.00 0.00 0.00 69 1014.4
20260502193304 17 350 1.6 4.8 0.00 0.00 0.00 70 1014.3
20260502190803 18 306 4.8 11.3 0.00 0.00 0.00 71 1014.1
20260502190304 18 281 3.2 8.0 0.00 0.00 0.00 70 1014.1
20260502184804 18 284 3.2 4.8 0.00 0.00 0.00 68 1014.1
20260502184303 18 289 1.6 4.8 0.00 0.00 0.00 68 1014.1
20260502183303 19 296 3.2 9.7 0.00 0.00 0.00 68 1014.1
20260502180803 20 290 3.2 11.3 0.00 0.00 0.00 67 1014.2
20260502161804 22 259 4.8 19.3 0.00 0.00 0.00 56 1014.6
20260502161303 22 298 4.8 12.9 0.00 0.00 0.00 57 1014.7
20260502160804 23 228 3.2 14.5 0.00 0.00 0.00 57 1014.7
20260502160304 23 277 4.8 16.1 0.00 0.00 0.00 56 1014.7
20260502123803 23 260 6.4 20.9 0.00 0.00 0.00 43 1016.2
20260502123304 23 247 8.0 19.3 0.00 0.00 0.00 41 1016.2
20260502121804 23 268 8.0 19.3 0.00 0.00 0.00 37 1016.2
20260502121303 25 193 4.8 19.3 0.00 0.00 0.00 37 1016.2
20260502113303 24 255 4.8 11.3 0.00 0.00 0.00 36 1016.4
20260502111304 23 198 4.8 14.5 0.00 0.00 0.00 37 1016.6
20260502110804 23 195 6.4 14.5 0.00 0.00 0.00 36 1016.7
20260502110304 22 186 4.8 12.9 0.00 0.00 0.00 36 1016.7
20260502104303 22 216 4.8 9.7 0.00 0.00 0.00 40 1016.8
20260502103803 22 175 4.8 14.5 0.00 0.00 0.00 38 1016.9
20260502103303 22 233 4.8 14.5 0.00 0.00 0.00 41 1016.9
20260502101804 21 194 4.8 11.3 0.00 0.00 0.00 41 1016.9
20260502101303 21 232 4.8 11.3 0.00 0.00 0.00 43 1016.9
20260502091304 23 188 4.8 12.9 0.00 0.00 0.00 39 1017.1
20260502090803 23 161 4.8 14.5 0.00 0.00 0.00 38 1017.0
20260502071303 17 196 6.4 12.9 0.00 0.00 0.00 49 1017.6
20260502064804 16 207 6.4 12.9 0.00 0.00 0.00 51 1017.7
20260502061804 15 190 4.8 14.5 0.00 0.00 0.00 56 1017.7
20260502053804 12 174 3.2 11.3 0.00 0.00 0.00 59 1018.0
20260502051304 11 183 4.8 8.0 0.00 0.00 0.00 61 1018.0
20260502050804 11 193 3.2 9.7 0.00 0.00 0.00 62 1018.0
20260502044803 11 149 3.2 8.0 0.00 0.00 0.00 62 1018.1
20260502043303 11 166 4.8 9.7 0.00 0.00 0.00 62 1018.0
20260502041314 11 183 3.2 8.0 0.00 0.00 0.00 62 1018.2
20260502040303 11 179 3.2 4.8 0.00 0.00 0.00 62 1018.2
20260502034804 11 167 1.6 8.0 0.00 0.00 0.00 61 1018.3
20260502034303 11 185 1.6 4.8 0.00 0.00 0.00 61 1018.3
20260502031304 12 156 3.2 11.3 0.00 0.00 0.00 60 1018.4
20260502030304 12 172 3.2 4.8 0.00 0.00 0.00 59 1018.5
20260502023803 12 190 4.8 8.0 0.00 0.00 0.00 59 1018.7
20260502023303 12 181 4.8 8.0 0.00 0.00 0.00 59 1018.7
20260502021304 12 170 3.2 8.0 0.00 0.00 0.00 59 1018.9
20260502020804 12 178 3.2 4.8 0.00 0.00 0.00 59 1019.0
20260502020303 12 177 3.2 4.8 0.00 0.00 0.00 60 1019.0
20260502013804 12 144 1.6 3.2 0.00 0.00 0.00 63 1019.2
20260502011803 11 144 0.0 1.6 0.00 0.00 0.00 64 1019.3
20260502011304 11 144 0.0 1.6 0.00 0.00 0.00 65 1019.4
20260502010804 11 144 0.0 1.6 0.00 0.00 0.00 64 1019.4
20260501234804 12 144 0.0 0.0 0.00 0.00 0.00 64 1020.2
20260501233304 12 144 0.0 0.0 0.00 0.00 0.00 64 1020.3
20260501231303 13 144 0.0 0.0 0.00 0.00 0.00 61 1020.4
20260501224304 14 144 1.6 1.6 0.00 0.00 0.00 57 1020.6
20260501223804 14 144 0.0 1.6 0.00 0.00 0.00 57 1020.6
20260501220304 16 144 0.0 3.2 0.00 0.00 0.00 52 1020.7